Home   Weather   Sandefjord   Past weeks

Flag for Norway Past Weather in Sandefjord, Norway — Yesterday and Last 2 Weeks

Now
32 °F

Chilly.


Feels Like: 25 °F
Forecast: 26 / 32 °F
Wind: 8 mph from West

Location: Torp

Current Time: Dec 3, 2016 at 5:48:24 am

Latest Report: Dec 3, 2016 at 4:50 am


Visibility: N/A

Pressure: 30.12 "Hg

Humidity: 60%

Dew Point: 19 °F

Location of SandefjordLocation

Past Weather in Sandefjord — Graph

°F

Sandefjord Temperature Yesterday

Maximum temperature yesterday: 41 °F (at 11:50 am)
Minimum temperature yesterday: 32 °F (at 8:20 pm)
Average temperature yesterday: 36 °F

High & Low Weather Summary for the Past Weeks

 TemperatureHumidityPressure
High48 °F (Nov 25, 10:50 pm)100% (Nov 18, 4:20 am)30.45 "Hg (Nov 18, 4:20 am)
Low25 °F (Nov 29, 7:20 am)39% (Nov 27, 12:50 pm)28.88 "Hg (Nov 18, 5:50 am)
Average38 °F77%29.82 "Hg
* Reported Nov 18 4:20 am — Dec 3 4:20 am, Sandefjord, Weather by CustomWeather, © 2016

Note: Actual official high and low records may vary slightly from our data, if they occured in-between our weather recording intervals... More about our weather records

Advertising

Sandefjord Weather History for the Previous 24 Hours

Scroll right to see more
 ConditionsComfort  
Time TempWeatherWind HumidityBarometerVisibility
4:20 am
Sat, Dec 3
32 °FChilly.7 mph55%30.15 "HgN/A
3:50 am32 °FPassing clouds.7 mph55%30.15 "HgN/A
3:20 am32 °FChilly.5 mph55%30.15 "HgN/A
2:50 am32 °FChilly.5 mph55%30.15 "HgN/A
2:20 am32 °FChilly.3 mph55%30.15 "HgN/A
1:50 am32 °FPassing clouds.5 mph60%30.15 "HgN/A
1:20 am30 °FChilly.7 mph64%30.15 "HgN/A
12:50 am32 °FChilly.7 mph60%30.15 "HgN/A
12:20 am32 °FChilly.8 mph60%30.15 "HgN/A
11:50 pm
Fri, Dec 2
32 °FChilly.9 mph60%30.15 "HgN/A
11:20 pm32 °FPassing clouds.8 mph55%30.15 "HgN/A
10:50 pm32 °FChilly.7 mph60%30.15 "HgN/A
10:20 pm32 °FClear.6 mph55%30.15 "Hg10 mi
9:50 pm34 °FClear.6 mph56%30.15 "Hg10 mi
9:20 pm34 °FClear.6 mph51%30.15 "Hg10 mi
8:50 pm32 °FClear.5 mph55%30.15 "Hg10 mi
8:20 pm32 °FClear.8 mph60%30.15 "Hg10 mi
7:50 pm34 °FClear.8 mph51%30.15 "Hg10 mi
7:20 pm34 °FClear.8 mph51%30.15 "Hg10 mi
6:50 pm34 °FClear.7 mph51%30.15 "Hg10 mi
6:20 pm34 °FClear.9 mph56%30.15 "Hg10 mi
5:50 pm36 °FClear.9 mph48%30.12 "Hg10 mi
5:20 pm36 °FPassing clouds.7 mph52%30.12 "HgN/A
4:50 pm37 °FChilly.8 mph48%30.12 "HgN/A
4:20 pm36 °FClear.8 mph52%30.12 "Hg10 mi
3:50 pm36 °FPassing clouds.3 mph52%30.12 "HgN/A
3:20 pm37 °FSunny.6 mph48%30.09 "Hg10 mi
2:50 pm39 °FSunny.13 mph45%30.09 "Hg10 mi
2:20 pm39 °FSunny.12 mph45%30.09 "Hg10 mi
1:50 pm41 °FSunny.10 mph42%30.09 "Hg10 mi
1:20 pm41 °FSunny.12 mph42%30.07 "Hg10 mi
12:50 pm41 °FSunny.12 mph42%30.07 "Hg10 mi
12:20 pm41 °FPassing clouds.12 mph42%30.07 "HgN/A
11:50 am41 °FSunny.14 mph39%30.07 "Hg10 mi
11:20 am39 °FSunny.12 mph42%30.07 "Hg10 mi
10:50 am39 °FSunny.16 mph42%30.04 "Hg10 mi
10:20 am37 °FSunny.16 mph45%30.04 "Hg10 mi
9:50 am36 °FSunny.10 mph48%30.04 "Hg10 mi
9:20 am36 °FSunny.9 mph44%30.01 "Hg10 mi
8:50 am34 °FSunny.3 mph48%30.01 "Hg10 mi
8:20 am36 °FClear.7 mph44%29.98 "Hg10 mi
7:50 am37 °FClear.3 mph41%29.98 "Hg10 mi
7:20 am36 °FClear.7 mph44%29.95 "Hg10 mi
6:50 am37 °FClear.5 mph41%29.95 "Hg10 mi
6:20 am36 °FClear.6 mph44%29.92 "Hg10 mi
5:50 am37 °FClear.6 mph41%29.92 "Hg10 mi
5:20 am36 °FChilly.9 mph44%29.89 "HgN/A
Weather by CustomWeather, © 2016

See weather overviewHow to use our weather pages